Location: *
(32.8140°S, 174.6161°E)
Time: 01:52:56
(UTC+00:00)

Daily predictions for brighter satellites

Satellite Brightness Start Highest point End
(mag) Time Altitude Azimuth Time Altitude Azimuth Time Altitude Azimuth
Okean-O 4.0 06:42:41 10° SE 06:45:45 18° E 06:48:48 10° NE
CORIOLIS 4.2 06:42:09 10° SSE 06:47:41 78° ENE 06:53:07 10° N
Cosmos 2297 4.1 06:43:18 10° S 06:48:49 44° ESE 06:54:17 10° NE
CZ-2C R/B 3.1 06:44:28 10° NE 06:49:41 43° ESE 06:54:51 10° S
Hubble Space Telescope 1.5 06:46:39 10° WNW 06:50:40 45° N 06:54:39 10° ENE
Tsikada Rocket 4.4 06:44:52 10° N 06:51:10 75° W 06:57:37 10° S
Cosmos 2278 Rocket 3.7 06:46:02 10° SW 06:51:21 40° WNW 06:56:36 10° N
USA 305 4.1 06:48:14 10° SSW 06:52:05 29° SE 06:55:51 10° E
CZ-2D R/B 4.4 06:49:50 10° SE 06:53:00 23° E 06:56:07 10° NNE
Delta 2 Rocket 4.4 06:49:28 10° W 06:55:13 65° S 07:00:46 10° E
USA 306 3.9 06:52:48 10° SSW 06:56:43 31° SE 07:00:16 12° E
OAO 1 Rocket 4.5 06:51:31 10° WNW 06:56:52 77° NNE 07:02:14 10° ESE
MOS 1 Rocket 3.6 06:55:01 10° N 06:59:31 71° W 07:04:23 10° SSW
Cosmos 1733 3.2 06:59:06 10° S 07:03:04 89° W 07:06:57 10° N
Helios 1A Rocket 3.3 07:03:55 10° SSE 07:07:48 40° E 07:11:39 10° N
Cosmos 1953 4.4 07:06:43 10° SE 07:07:40 11° ESE 07:07:40 11° ESE
Okean O Rocket 3.3 07:04:07 10° S 07:08:19 39° WSW 07:12:28 10° NW
SL-24 R/B 4.3 07:04:21 10° SSE 07:08:52 51° E 07:13:05 10° N
CZ-2C R/B 4.1 07:07:16 10° SE 07:10:57 21° E 07:14:41 10° NE
Meteor 1-22 Rocket 4.2 07:06:35 10° S 07:12:05 89° W 07:17:44 10° N
Cosmos 1455 Rocket 3.5 07:11:54 10° S 07:16:11 40° E 07:20:23 10° NNE
Cosmos 2112 Rocket 4.1 07:12:43 10° NNW 07:18:03 85° WSW 07:23:29 10° SSE
Atlas Centaur 2 2.8 07:11:11 10° WNW 07:18:24 54° NNE 07:22:39 19° E
Cosmos 1634 Rocket 3.9 07:12:33 10° S 07:18:51 83° E 07:25:02 10° N
Cosmos 1680 Rocket 3.9 07:13:49 10° NNW 07:19:06 70° WSW 07:24:29 10° SSE
Lacrosse 5 3.3 07:15:20 10° SSW 07:19:20 22° SE 07:21:41 16° ESE
CZ-4 R/B 1.9 07:16:21 10° SSE 07:20:21 40° E 07:24:21 10° N
OAO 3 Rocket 3.2 07:17:08 10° WSW 07:21:50 71° S 07:24:52 22° E
Meteor 1-21 4.4 07:17:48 10° N 07:23:29 81° W 07:29:19 10° S
Cosmos 1943 Rocket 2.5 07:18:49 10° S 07:24:18 45° ESE 07:28:26 17° NE
SeaSat 1 2.4 07:20:14 10° SSE 07:25:11 66° ENE 07:30:05 10° NNW
Cosmos 1340 Rocket 3.7 07:21:25 10° SSW 07:25:17 52° W 07:29:06 10° N
USA 307 3.1 07:22:41 10° SW 07:27:00 56° SE 07:29:18 25° ENE
USA 308 3.0 07:26:13 10° SW 07:30:33 60° SE 07:32:40 28° ENE
Cosmos 1758 3.6 07:26:49 10° S 07:30:42 45° E 07:33:02 21° NE
CZ-2C R/B 4.2 07:28:06 17° NE 07:31:27 43° ESE 07:36:01 10° S
Cosmos 2056 Rocket 4.3 07:27:14 10° S 07:32:08 33° ESE 07:34:07 25° ENE
Cosmos 1975 Rocket 4.0 07:28:52 10° NNW 07:33:08 51° W 07:37:31 10° S
ATLAS 5 CENTAUR R/B 2.8 07:29:10 10° S 07:33:36 27° SE 07:34:50 24° ESE
H-2A R/B 2.8 07:30:17 10° SE 07:34:27 26° E 07:34:28 26° E
Cosmos 1726 3.0 07:33:01 10° SSE 07:35:59 30° ESE 07:35:59 30° ESE
Aurora 2 Rocket 4.5 07:28:24 10° WNW 07:37:29 47° N 07:41:35 25° ENE
USA 215 4.3 07:37:52 22° ENE 07:37:56 22° ENE 07:42:51 10° N
Cosmos 371 Rocket 4.1 07:40:48 10° S 07:45:06 30° ESE 07:45:16 30° ESE
YAOGAN 1 2.5 07:40:50 10° SSE 07:45:12 67° E 07:49:31 10° N
Cosmos 1943 3.2 07:45:01 10° NNW 07:50:43 86° WSW 07:56:30 10° SSE
Cosmos 2279 Rocket 4.0 07:45:42 10° S 07:52:00 87° W 07:58:15 10° N
Cosmos 2084 Rocket 3.5 07:48:47 10° NNW 07:53:18 61° ENE 07:55:16 32° SE
Cosmos 2180 Rocket 4.4 07:49:18 10° S 07:55:32 77° E 08:01:44 10° N
SL-4 R/B 4.1 07:55:33 10° S 07:56:34 12° SSE 07:56:34 12° SSE
Meteor 1-16 Rocket 4.5 07:54:24 10° S 07:59:56 47° E 08:00:54 43° ENE
Cosmos 1624 Rocket 3.9 07:58:37 10° S 08:03:52 66° ESE 08:04:59 51° NE
BREEZE-M R/B 3.1 08:01:05 10° SW 08:09:11 64° SE 08:09:52 55° E
BREEZE-M DEB (TANK) 4.2 08:06:34 10° SW 08:08:07 23° SSW 08:08:07 23° SSW
Cosmos 1544 Rocket 3.8 08:05:44 10° SSW 08:10:12 68° W 08:12:09 32° NNW
Cosmos 1470 4.3 08:07:08 10° SSW 08:10:50 35° W 08:14:28 10° NNW
OAO 2 Rocket 3.2 08:12:39 10° W 08:17:37 76° S 08:18:00 71° SE
Cosmos 1025 Rocket 4.2 08:13:33 10° NNW 08:17:44 43° W 08:21:57 10° S
Cosmos 2369 Rocket 2.1 08:15:09 10° SSW 08:20:48 90° WNW 08:21:48 62° NNE
Okean-O 4.4 08:18:14 10° S 08:22:14 32° WSW 08:26:12 10° NW
Cosmos 1092 Rocket 3.9 08:22:03 51° NNE 08:23:32 68° E 08:29:55 10° SSE
Hubble Space Telescope 2.8 08:28:00 10° WNW 08:30:08 22° NW 08:30:08 22° NW
USA 305 4.3 08:28:10 10° WSW 08:32:03 32° NW 08:32:03 32° NW
Cosmos 2263 4.1 08:29:07 10° SSW 08:34:39 82° SSE 08:34:39 82° SSE
BREEZE-M DEB (TANK) 4.5 08:06:01 10° WSW 08:37:26 79° SSE 08:39:50 55° ENE
Delta 2 Rocket 4.1 08:32:25 10° WSW 08:37:38 74° WSW 08:37:38 74° WSW
Cosmos 1953 4.0 08:40:37 10° SSW 08:43:24 33° SW 08:43:24 33° SW
CSL-04 Rocket 4.5 08:44:05 10° S 08:49:12 48° WSW 08:54:20 10° NW
Cosmos 1656 Rocket 4.4 08:48:52 10° SSW 08:52:42 47° SSW 08:52:42 47° SSW
Lacrosse 5 3.2 08:57:33 10° SW 09:00:54 38° WSW 09:00:54 38° WSW
Atlas Centaur 2 3.3 09:01:03 10° W 09:05:16 39° WNW 09:05:16 39° WNW
Cosmos 1943 Rocket 4.4 09:03:38 10° SW 09:07:36 20° W 09:10:02 15° NW
H-2A R/B 3.8 09:09:37 10° SSW 09:13:45 27° WSW 09:15:07 23° W
ATLAS 5 CENTAUR R/B 4.0 09:14:05 10° SW 09:16:24 21° WSW 09:16:24 21° WSW
